Погода Нижний Чир

Погода Нижний Чир : погода сейчас, прогноз погоды и архив. Всё, что Вы хотите узнать о погоде Нижний Чир!

Хотите узнать прогноз погоды Нижний Чир? Тогда Вам сюда: Погода Нижний Чир

Поиск расширенной информации на нашем сайте:

Другие новости

Новости СМИ2

Главная страница сайта

Новости сайта

03.07.2017

Напоминаем, что на нашем специализированном сайте Метеоцентр.Азия вы можете получить высокодетализированные автоматические прогнозы погоды по пунктам России, СНГ и мира в авиационном формате (включающие направление и скорость ветра, видимость, явления погоды, количество и форму облачности, нижнюю и верхнюю границу облачности).


Погода Нижний Чир - сегодня

Время (UTC), дата Ветер
(°,м/с) 
Видим.   Явления Облачность Т
(°С)
Тd
(°С)
f(%) Тe
(°С)
Pmin
(гПа)
dP
(гПа)
Po
(мм)
O2
(г/м3)
Тmin Tmax R s Состояние
почвы
00 12.11.18 070 (В) 11-16{17}  20000 м    10/10 600 м 
[Sc]
-2.4 -11.2 51 -8  1041.1  0.5  774  316           
03 12.11.18 070 (В) 10-15  20000 м    10/10 600 м 
[Sc]
-4.1 -10.8 60 -10  1041.9  0.7  774  318  -4.2         
06 12.11.18 070 (В) 10-15{17}  20000 м    10/10 600 м 
[Sc]
-5.3 -11.1 64 -11  1042.8  0.8  775  319  -5.3         
09 12.11.18 060 (СВ) 11-15{16}  20000 м    10/10 600 м 
[Sc]
-4.8 -10.6 64 -11  1042.4  -0.3  775  319           
12 12.11.18 060 (СВ) 10-15{16}  20000 м    10/10 300 м 
[St]
-3 -12.4 48 -9  1041.8  -0.5  774  317           
15 12.11.18 070 (В) 11  20000 м  в посл. час снег  10/10 300 м 
[St]
-3 -13 46 -9  1042.4  0.5  775  317    -2.3  0.0     
18 12.11.18 080 (В) 11-17{18}  20000 м  {снег}  10/10 300 м 
[St]
-3.7 -13 48 -10  1042.4  0.1  775  318           
21 12.11.18 070 (В) 10-15{19}  10 км  слаб. снег  10/10 300 м 
[Frnb|Ns]
-4.3 -11.1 59 -10  1041.5  -0.8  774  318           
00 13.11.18 080 (В) 10-14{16}  10 км  слаб. снег  10/10 300 м 
[Frnb|Ns]
-4.9 -8.8 74 -11  1040.9  -0.7  773  318           
03 13.11.18 060 (СВ) 11  10 км  слаб. снег  10/10 300 м 
[Frnb|Ns]
-4.4 -9.1 70 -11  1040.2  -0.6  773  318  -5    0.2     
06 13.11.18 060 (СВ) 10-15{16}  10 км  слаб. снег  10/10 300 м 
[Frnb|Ns]
-4.8 -10.6 64 -11  1040.7  0.4  773  318           
12 13.11.18 060 (СВ) 10-13{15}  20000 м  {ливн. осадки}  9/9 600 м 
[Sc]
-0.3 -13.1 37 -5  1040  -0.4  773  313           
15 13.11.18 070 (В) 8-11  20000 м    10/10 600 м 
[Sc]
-1.3 -13.1 40 -6  1040.9  0.9  773  314    +0  0.0     
18 13.11.18 070 (В) 7-10{13}  20000 м    10/10 600 м 
[Sc]
-2.4 -12.8 45 -7  1040.8  0.1  773  316           
21 13.11.18 080 (В) 8-12{12}  20000 м    ясно 
-3.9 -13.1 49 -9  1040  -0.9  773  317           
00 14.11.18 090 (В) 6{13}  20000 м    10/10 600 м 
[Sc]
-4.4 -12.7 52 -9  1039.3  -0.7  772  317           
03 14.11.18 090 (В) 6{10}  20000 м    10/10 600 м 
[Sc]
-4.8 -11 62 -9  1038.3  -1  771  318  -4.8         
06 14.11.18 080 (В) 20000 м    ясно 
-5.9 -10.6 69 -10  1038.1  -0.2  771  319  -6.2         
09 14.11.18 090 (В) 20000 м    ясно 
-0.3 -8.9 52 -3  1036.1  -1.7  770  312           
12 14.11.18 090 (В) 6{10}  20000 м    ясно 
+2.8 -9.8 39 1034.4  -1.6  769  308           
15 14.11.18 080 (В) 7-10{12}  20000 м    6/6 600 м 
[Sc]
+0.6 -11.8 39 -3  1034.5  0.1  769  310    +2.8       
18 14.11.18 090 (В) 7-10{12}  20000 м    8/8 600 м 
[Sc]
+0 -12.8 37 -4  1034.1  -0.4  769  311           
21 14.11.18 090 (В) 8-11{14}  20000 м    ясно 
-2.6 -12 48 -7  1033.8  -0.4  768  314           
00 15.11.18 090 (В) 8-11{13}  20000 м    ясно 
-3.8 -11.8 54 -9  1033  -0.8  768  315           
03 15.11.18 060 (СВ) 6{12}  20000 м    ясно 
-5.3 -10.5 67 -10  1033.1  768  316  -5.3         
Время (UTC), дата Ветер
(°,м/с) 
Видим.   Явления Облачность Т
(°С)
Тd
(°С)
f(%) Тe
(°С)
Pmin
(гПа)
dP
(гПа)
Po
(мм)
O2
(г/м3)
Тmin Tmax R s Состояние
почвы

Для получения пояснительной информации подведите курсор к названию столбца.

ПОГОДА Нижний Чир - архив

Всё, что Вы хотите узнать о погоде Нижний Чир - удобно и подробно!

Выберите нужную дату (начиная с 1 января 2015* года) и нажмите кнопку "Найти".
Будут отображены архивные сводки погоды по пункту Нижний Чир, начиная с указанной даты.


Отображать данные в формате CSV (для использования в таблицах Excel)


Внимание! Наш архив погоды предназначен исключительно для личного некоммерческого использования в познавательных целях. Если Вам необходимы официальные справки о состоянии погоды (для производственных, юридических, коммерческих и т.п. целей), обращайтесь в органы Росгидромета.

*Примечание: данная дата относится к архиву по метеостанциям СССР (Россия, СНГ, Балтия).
Архив по метеостанциям Зарубежной Европы и Азии (кроме Китая) хранится 10 дней, по другим регионам земного шара (Китай, Африка, Америка, Австралия, Океания) - 1 день.

Нижний Чир - район местоположения метеостанции


Название, широта, долгота, высота метеостанции:
Нижний Чир 48.3°ш. 43.1°д. 68 м над ур. моря [Российская Федерация]

Дополнительная информация

В oтличие oт бoльшинства пoгoдных сайтoв мы публикуем пoдрoбную метеoинфoрмацию в детальнoм прoфессиoнальнoм фoрмате.

Характеристики температуры и влажнoсти вoздуха измеряются на высoте 2 м в тени вдали oт зданий и деревьев.
Скoрoсть ветра измеряется на высoте 10 м (на урoвне рoста челoвека скoрoсть ветра ниже в 1.5-2 раза). Если метеoстанция нахoдится в гoрoде или в лесу, тo скoрoсть ветра занижена на 2-4 м/с пo сравнению с oткрытым местoм. Скoрoсть ветра над акватoриями крупных рек и oзёр, а также на вершинах хoлмoв на 2-5 м/с выше, чем в oбычных услoвиях.
Атмoсфернoе давление в разных тoчках местнoсти мoжет значительнo oтличаться oт давления на метеoстанции, в зависимoсти oт услoвий рельефа (при пoдъёме на 10 м давление пoнижается примернo на 1 мм рт.ст.).